www.pogodaiklimat.ru

Погода и климат >> Архив погоды >> Россия >> Саратовская область >> Сплавнуха


ПОГОДА в Сплавнухе

  • Прогноз погоды в Сплавнухе
  • Монитор погоды в Сплавнухе

АРХИВ ПОГОДЫ в Сплавнухе

Время (UTC), дата Ветер
(напр.,м/с)
 
Видим.   Явления Облачность Т
(С)
Тd
(С)
f
(%)
Тe
(С)
Тes
(С)
Комфортность P
(гПа)
Po
(гПа)
Тmin
(С)
Tmax
(С)
R
(мм)
R24
(мм)
S
(см)
18 16.08 ЮВ 1 50 км 8/0
[Ac trans]
+23.0 +12.8 53 +26 +26 жарко 1012.1 989.3
21 16.08 ЮВ 2 50 км 6/0
[Ac trans]
+22.8 +11.1 48 +25 +25 комфорт 1011.5 988.6
00 17.08 СВ 1 50 км 8/0
[Ac trans]
+20.9 +11.5 55 +24 +24 комфорт 1011.8 988.8
03 17.08 В 1 50 км 9/0
[Ac trans]
+20.6 +12.0 58 +24 +24 комфорт 1012.4 989.4 +19.6
06 17.08 Ю 2 50 км 10/0
[Ac und]
+24.0 +13.8 53 +26 +29 жарко 1013.0 990.2
09 17.08 Ю 3 50 км 10/0
[Ac und]
+28.7 +9.7 31 +29 +32 жарко 1012.0 989.6
12 17.08 ЮВ 3 50 км 8/0
[Ci fib]
+30.4 +9.0 26 +30 +35 жарко 1010.3 988.0
15 17.08 Ю 1
{11}
50 км 10/0
[Ac und]
+28.7 +10.1 31 +29 +29 жарко 1009.6 987.2 +31.4
18 17.08 ЮЗ 1 50 км 10/4 300 м
[Cb cap Ac und]
+24.4 +12.0 46 +26 +26 жарко 1010.2 987.5
21 17.08 Ю 2
{11}
50 км 10/0
[Ac und]
+24.5 +11.9 45 +26 +26 жарко 1010.6 987.9
00 18.08 В 1 50 км 10/0
[Ac und]
+20.8 +13.7 64 +25 +25 комфорт 1011.3 988.3
03 18.08 ЮВ 2 50 км 6/0
[Ac trans]
+19.8 +13.0 65 +22 +23 комфорт 1011.7 988.6 +19.8
06 18.08 Ю 2 50 км 9/0
[Ac trans]
+22.9 +14.4 59 +27 +30 душно 1012.8 989.9 +19.6
09 18.08 Ю 5-10
{10}
50 км 8/3 1000 м
[Cu hum Ac trans Ci fib]
+30.0 +11.3 32 +31 +34 жарко 1012.4 990.1
12 18.08 Ю 4
{10}
50 км 8/0
[Ac trans Ci fib]
+30.5 +6.6 22 +29 +33 жарко 1012.6 990.3
15 18.08 ЮВ 1
{10}
50 км 9/0
[Ac trans]
+28.6 +10.0 31 +29 +29 жарко 1012.6 990.2 +31.7
18 18.08 З 2 50 км 10/0
[Ac und]
+22.7 +14.1 58 +26 +26 жарко 1015.1 992.2
21 18.08 В 1 50 км 8/0
[Ac trans]
+20.8 +14.3 66 +25 +25 комфорт 1015.4 992.3
00 19.08 ЮВ 1 50 км 8/0
[Ac trans]
+20.5 +12.5 60 +24 +24 комфорт 1015.9 992.7
03 19.08 Ю 1 50 км 6/0
[Ac trans]
+20.3 +12.2 60 +23 +24 комфорт 1016.8 993.6 +19.6
06 19.08 ЮВ 2 50 км 5/0
[Ac trans Ci fib]
+28.5 +11.4 35 +29 +35 жарко 1016.5 994.0
09 19.08 Ю 3 50 км 3/0
[Ci fib]
+32.4 +7.4 21 +31 +41 жарко 1016.0 993.7
12 19.08 Ю 4 50 км 8/0
[Ac trans]
+30.6 +10.3 28 +30 +33 жарко 1016.4 994.0
15 19.08 ЮЗ 2 50 км 5/0
[Ac trans Ci fib]
+30.2 +6.8 23 +29 +29 жарко 1016.8 994.4 +33.0
18 19.08 Ю 1 50 км 4/0
[Ac trans]
+21.4 +10.8 51 +23 +23 комфорт 1018.0 994.9
21 19.08 Ю 1 50 км 3/0
[Ac trans]
+17.1 +12.1 72 +18 +18 1018.6 995.1
00 20.08 ЮЗ 1 50 км 3/0
[Ac trans]
+15.1 +10.5 74 +16 +16 1018.7 995.1
03 20.08 штиль 0 50 км 4/0
[Ac trans]
+15.1 +11.4 79 +15 +15 1019.2 995.5 +14.5
06 20.08 В 1 50 км ясно +27.3 +12.9 41 +29 +38 жарко 1018.8 996.1
09 20.08 Ю 4 50 км ясно +33.1 +12.3 28 +33 +42 жарко 1017.4 995.2
12 20.08 ЮЗ 4
{10}
50 км 6/6 1000 м
[Cu hum]
+35.1 +13.7 28 +36 +38 очень
жарко
1016.3 994.2
15 20.08 СЗ 3 50 км 3/3 1000 м
[Cu hum]
+31.8 +15.3 37 +34 +34 душно 1016.5 994.3 +35.3
18 20.08 С 4 50 км 8/0
[Ac trans]
+26.3 +17.2 57 +30 +30 душно 1018.2 995.5
21 20.08 СЗ 1 50 км ясно +21.7 +16.2 71 +25 +25 комфорт 1019.2 996.1
00 21.08 С 3 50 км ясно +19.3 +16.3 83 +21 +21 комфорт 1019.6 996.3
03 21.08 штиль 0 50 км ясно +18.1 +16.6 91 +18 +19 1020.2 996.9 +17.6
06 21.08 СВ 5 50 км ясно +25.2 +16.0 57 +29 +33 душно 1020.4 997.6
09 21.08 СВ 4
{10}
50 км ясно +28.4 +14.3 42 +31 +39 душно 1019.9 997.3
12 21.08 В 3
{10}
50 км ясно +29.2 +15.9 45 +32 +39 душно 1019.4 996.9
15 21.08 СВ 3 50 км ясно +27.2 +15.3 48 +30 +30 душно 1019.6 996.9 +29.4
18 21.08 СВ 2 50 км ясно +21.1 +14.8 67 +24 +24 комфорт 1020.8 997.6
21 21.08 В 1 50 км ясно +16.8 +14.0 84 +18 +18 1021.4 997.9
00 22.08 СВ 1 50 км ясно +13.8 +12.7 93 +14 +14 1021.7 997.9
03 22.08 В 1 50 км ясно +16.5 +14.9 90 +17 +18 1021.6 998.1 +13.2
06 22.08 В 2 50 км ясно +24.0 +15.2 58 +27 +35 жарко 1021.1 998.2
09 22.08 В 4 50 км ясно +26.7 +14.6 47 +29 +38 жарко 1020.3 997.5
12 22.08 СВ 4 50 км ясно +28.1 +13.5 41 +30 +35 жарко 1019.4 996.8
15 22.08 СВ 2 50 км ясно +27.1 +14.2 45 +29 +30 жарко 1019.1 996.4 +28.7
18 22.08 штиль 0 50 км ясно +19.0 +13.8 72 +20 +20 1020.4 997.1
21 22.08 ЮЗ 1 50 км ясно +14.8 +12.6 87 +15 +15 1020.9 997.2
00 23.08 ЮЗ 1 50 км ясно +13.4 +12.4 94 +13 +13 1020.9 997.1
03 23.08 штиль 0 50 км ясно +14.0 +12.6 91 +14 +14 1021.2 997.4 +12.5
06 23.08 С 2 50 км 3/0
[Ci]
+25.2 +15.3 54 +28 +35 жарко 1020.9 998.0
09 23.08 В 2 50 км 4/4 1000 м
[Cu hum]
+29.6 +13.7 38 +31 +39 жарко 1020.4 997.9
12 23.08 СВ 2 50 км 4/4 1000 м
[Cu hum]
+29.2 +13.2 37 +31 +35 жарко 1020.0 997.5

 

Местоположение метеостанции Сплавнуха (Саратовская область, Россия): широта 51.07 долгота 45.38 высота над уровнем моря 197 м.

В архиве по умолчанию представлена погода в Сплавнухе за последнюю неделю. Архивные данные за месяц целиком и за предыдущие месяцы, начиная с января 2011 года, Вы можете получить, выбрав интересующий диапазон дат из раскрывающегося списка и нажав кнопку "Ввод!".


*Определитесь, кто Вы:
робот инопланетянин человек

Внимание! Время в таблицах - всемирное. Для получения местного времени необходимо прибавить поправку, которая равна 4 ч.

Смотрите также архив погоды в соседних городах и на ближайших метеорологических станциях:

Погода в Октябрьском Городке (Саратовская область, Россия) (62 км)
Погода в Рудне (Волгоградская область, Россия) (63 км)
Погода в Саратове ЮВ (Саратовская область, Россия) (70 км)
Погода в Саратове (Саратовская область, Россия) (72 км)
Погода в Калининске (Саратовская область, Россия) (76 км)
Погода в Аткарске (Саратовская область, Россия) (92 км)
Погода в Камышине (Волгоградская область, Россия) (111 км)
Погода в Красном Куте (Саратовская область, Россия) (112 км)
Погода в Елани (Волгоградская область, Россия) (116 км)
Погода в Маркс (Саратовская область, Россия) (117 км)

Пояснения к столбцам:

Ветер - указаны скорость ветра в м/с - средняя за 10 мин, порывы в срок и между сроками (в фигурных скобках) и направление, откуда дует ветер: С - северный, СВ - северо-восточный, В - восточный, ЮВ - юго-восточный, Ю - южный, ЮЗ - юго-западный, З - западный, СЗ - северо-западный.
Видимость - горизонтальная дальность видимости в метрах или километрах. При видимости от 1 до 10 км при отсутствии осадков обычно наблюдается дымка, при ухудшении видимости до 1 км и менее - туман. В сухую погоду видимость может ухудшаться дымом, пылью или мглою.
Явления - указаны атмосферные явления, наблюдавшиеся в срок или в последний час перед сроком; фигурными скобками обозначены явления, наблюдавшиеся между сроками (за 1-3 часа до срока); квадратными скобками обозначены град или гололедные отложения с указанием их диаметра в мм.
Облачность - указаны через наклонную черту общая и нижняя облачность в баллах и высота нижней границы облаков в метрах; квадратными скобками обозначены формы облаков: Ci - перистые, Cs - перисто-слоистые, Cc - перисто-кучевые, Ac - высококучевые, As - высокослоистые, Sc - слоисто-кучевые, Ns - слоисто-дождевые, Cu - кучевые, Cb - кучево-дождевые. Подробнее классификацию облаков см. в Атласе облаков (PDF).
T - Температура воздуха - температура, измеренная на высоте 2 м над землей.
Td - Температура точки росы - температура, при понижении до которой содержащийся в воздухе водяной пар достигнет насыщения.
f - Относительная влажность воздуха - влажноcть воздуха, измеренная на высоте 2 м над землей.
Te - Эффективная температура - температура, которую ощущает одетый по сезону человек в тени. Характеристика душности погоды. При расчете учитывается влияние влажности воздуха и скорости ветра на теплоощущения человека.
Tes - Эффективная температура на солнце - температура, которую ощущает человек, с поправкой на солнечный нагрев. Характеристика знойности погоды. Зависит от высоты солнца над горизонтом, облачности и скорости ветра. Ночью, в пасмурную погоду, а также при ветре 12 м/с и более поправка равна нулю.
P - Атмосферное давление - приведенное к уровню моря атмосферное давление.
Po - Атмосферное давление - измеренное на уровне метеостанции атмосферное давление.
Tmin - Минимальная температура - минимум температуры воздуха на высоте 2 м над землей.
Tmax - Максимальная температура - максимум температуры воздуха на высоте 2 м над землей.
R - Количество осадков - Количество выпавших осадков за период времени, мм. При наведении курсора мыши на число - период времени, за который выпало указанное количество осадков.
R24 - Количество осадков - Количество выпавших осадков за 24 часа, мм.
S - Снежный покров - Высота снежного покрова, см. При наведении курсора мыши на число - состояние снежного покрова и степень покрытия местности в баллах.